FW9535 Weather Reports


Display with metric or nautical units.
time (UTC)temp
F
wind
direction
speed
MPH
gust
MPH
rain 1hr
in
rain 24hr
in
rain mn
in
humidity
%
barometer
mb
20260508153117 57 246 0.0 0.0 0.00 0.00 0.00 76 1020.8
20260508151612 57 263 1.0 1.0 0.00 0.00 0.00 75 1021.0
20260508150108 57 267 1.0 1.0 0.00 0.00 0.00 74 1020.9
20260508144605 58 203 1.0 2.0 0.00 0.00 0.00 73 1020.7
20260508143102 58 257 1.0 1.0 0.00 0.00 0.00 72 1020.5
20260508141558 58 200 3.0 6.0 0.00 0.00 0.00 72 1020.6
20260508140055 58 287 0.0 0.0 0.00 0.00 0.00 72 1020.5
20260508134555 57 282 0.0 0.0 0.00 0.00 0.00 73 1020.5
20260508133052 58 266 0.0 0.0 0.00 0.00 0.00 72 1020.5
20260508131548 58 273 0.0 0.0 0.00 0.00 0.00 72 1020.6
20260508130044 58 276 0.0 0.0 0.00 0.00 0.00 72 1020.3
20260508124542 57 241 1.0 1.0 0.00 0.00 0.00 73 1020.4
20260508123038 58 274 1.0 1.0 0.00 0.00 0.00 72 1020.4
20260508121536 58 284 1.0 1.0 0.00 0.00 0.00 72 1020.2
20260508120035 58 290 0.0 0.0 0.00 0.00 0.00 72 1020.2
20260508114531 57 268 1.0 2.0 0.00 0.00 0.00 73 1020.1
20260508113028 58 219 2.0 3.0 0.00 0.00 0.00 72 1020.2
20260508111524 59 271 1.0 1.0 0.00 0.00 0.00 71 1019.9
20260508110020 59 271 2.0 2.0 0.00 0.00 0.00 70 1019.6
20260508104517 60 212 3.0 5.0 0.00 0.00 0.00 67 1019.5
20260508103013 60 227 3.0 5.0 0.00 0.00 0.00 67 1019.5
20260508101511 60 192 4.0 5.0 0.00 0.00 0.00 66 1019.1
20260508100009 60 226 2.0 2.0 0.00 0.00 0.00 66 1019.0
20260508094506 60 208 3.0 3.0 0.00 0.00 0.00 66 1018.8
20260508093003 60 192 5.0 6.0 0.00 0.00 0.00 66 1018.8
20260508091501 60 229 3.0 3.0 0.00 0.00 0.00 66 1018.7
20260508085958 60 210 3.0 6.0 0.00 0.00 0.00 65 1018.2
20260508084454 60 290 4.0 6.0 0.00 0.00 0.00 65 1018.0
20260508082950 61 265 3.0 3.0 0.00 0.00 0.00 64 1017.9
20260508081447 61 200 4.0 5.0 0.00 0.00 0.00 63 1017.8
20260508075944 61 183 3.0 5.0 0.00 0.00 0.00 63 1017.4
20260508074442 61 197 2.0 3.0 0.00 0.00 0.00 63 1017.2
20260508072939 62 301 1.0 2.0 0.00 0.00 0.00 62 1016.7
20260508071437 61 195 4.0 6.0 0.00 0.00 0.00 62 1016.2
20260508065935 62 204 3.0 5.0 0.00 0.00 0.00 62 1016.2
20260508064433 63 204 4.0 6.0 0.00 0.00 0.00 59 1016.1
20260508062931 65 243 3.0 5.0 0.00 0.00 0.00 57 1015.8
20260508061429 66 197 6.0 8.0 0.00 0.00 0.00 54 1015.6
20260508055925 67 189 4.0 8.0 0.00 0.00 0.00 54 1015.4
20260508054422 67 187 7.0 8.0 0.00 0.00 0.00 54 1015.1
20260508052919 67 218 3.0 5.0 0.00 0.00 0.00 53 1014.6
20260508051414 68 201 7.0 10.0 0.00 0.00 0.00 52 1014.5
20260508045909 68 277 3.0 3.0 0.00 0.00 0.00 51 1014.5
20260508044407 68 254 1.0 2.0 0.00 0.00 0.00 52 1014.2
20260508042902 68 205 5.0 6.0 0.00 0.00 0.00 51 1014.1
20260508041359 68 231 10.0 13.0 0.00 0.00 0.00 50 1013.9
20260508035856 68 205 8.0 11.0 0.00 0.00 0.00 50 1013.7
20260508034353 68 204 6.0 7.0 0.00 0.00 0.00 50 1014.0
20260508032851 69 201 7.0 9.0 0.00 0.00 0.00 49 1013.8
20260508031348 69 191 13.0 18.0 0.00 0.00 0.00 49 1013.8
20260508025844 68 181 6.0 8.0 0.00 0.00 0.00 49 1013.8
20260508024340 68 176 6.0 9.0 0.00 0.00 0.00 49 1014.1
20260508022836 68 251 6.0 9.0 0.00 0.00 0.00 49 1014.1
20260508021331 68 198 5.0 7.0 0.00 0.00 0.00 49 1014.4
20260508015828 69 206 4.0 7.0 0.00 0.00 0.00 49 1014.4
20260508014325 68 183 5.0 7.0 0.00 0.00 0.00 49 1014.7
20260508012820 67 197 6.0 9.0 0.00 0.00 0.00 50 1014.7
20260508011317 67 185 5.0 8.0 0.00 0.00 0.00 51 1014.8
20260508005815 66 202 5.0 8.0 0.00 0.00 0.00 52 1014.7
20260508004310 66 184 6.0 8.0 0.00 0.00 0.00 53 1014.7
20260508002806 65 210 6.0 8.0 0.00 0.00 0.00 53 1014.9
20260508001301 64 253 4.0 7.0 0.00 0.00 0.00 55 1014.9
20260507235756 64 228 2.0 3.0 0.00 0.00 0.00 55 1015.1
20260507234253 63 290 2.0 2.0 0.00 0.00 0.00 56 1015.3
20260507232750 61 192 4.0 7.0 0.00 0.00 0.00 59 1015.3
20260507231246 60 192 7.0 11.0 0.00 0.00 0.00 60 1015.2
20260507225746 59 182 5.0 7.0 0.00 0.00 0.00 61 1015.6
20260507224241 58 201 6.0 9.0 0.00 0.00 0.00 61 1015.4
20260507222736 57 239 5.0 6.0 0.00 0.00 0.00 63 1015.0
20260507221231 57 211 6.0 8.0 0.00 0.00 0.00 64 1015.3
20260507215728 56 321 4.0 7.0 0.00 0.00 0.00 64 1015.0
20260507214226 56 178 4.0 9.0 0.00 0.00 0.00 64 1015.1
20260507212726 55 194 7.0 10.0 0.00 0.00 0.00 64 1015.1
20260507211221 53 199 4.0 6.0 0.00 0.00 0.00 68 1014.9
20260507205718 53 195 7.0 9.0 0.00 0.00 0.00 67 1014.7
20260507204215 53 210 5.0 7.0 0.00 0.00 0.00 68 1014.7
20260507202711 52 239 1.0 1.0 0.00 0.00 0.00 68 1014.6
20260507201211 52 290 5.0 8.0 0.00 0.00 0.00 69 1014.5
20260507195706 52 219 3.0 3.0 0.00 0.00 0.00 68 1014.6
20260507194202 51 254 1.0 1.0 0.00 0.00 0.00 68 1014.9
20260507192657 51 207 2.0 2.0 0.00 0.00 0.00 67 1014.9
20260507191154 52 223 3.0 5.0 0.00 0.00 0.00 66 1015.0
20260507185653 52 249 3.0 5.0 0.00 0.00 0.00 66 1015.0
20260507184151 52 237 3.0 5.0 0.00 0.00 0.00 65 1015.0
20260507182647 53 262 4.0 7.0 0.00 0.00 0.00 63 1015.0
20260507181142 52 247 7.0 10.0 0.00 0.00 0.00 64 1015.2
20260507175637 52 229 6.0 8.0 0.00 0.00 0.00 63 1015.2
20260507174136 52 213 5.0 8.0 0.00 0.00 0.00 64 1015.4
20260507172631 51 296 5.0 7.0 0.00 0.00 0.00 65 1015.4
20260507171127 51 271 3.0 3.0 0.00 0.00 0.00 66 1015.3
20260507165622 51 185 2.0 3.0 0.00 0.00 0.00 66 1015.6
20260507164117 51 273 2.0 2.0 0.00 0.00 0.00 66 1015.7
20260507162613 50 273 2.0 2.0 0.00 0.00 0.00 66 1015.9
20260507161109 51 194 5.0 6.0 0.00 0.00 0.00 65 1016.2
20260507155609 51 203 4.0 5.0 0.00 0.00 0.00 65 1016.3
20260507154106 50 211 3.0 5.0 0.00 0.00 0.00 65 1016.6